FW5327 Weather Reports


time (UTC)temp
F
wind
direction
speed
knots
gust
knots
rain 1hr
in
rain 24hr
in
rain mn
in
humidity
%
barometer
mb
20260507125123 55 337 0.0 0.0 0.00 0.00 0.00 87 1029.6
20260507124126 55 355 0.0 0.0 0.00 0.00 0.00 89 1029.4
20260507123224 54 330 0.0 0.0 0.00 0.00 0.00 91 1029.3
20260507120325 53 358 0.0 0.0 0.00 0.00 0.00 95 1029.2
20260507114427 53 360 0.0 0.0 0.00 0.00 0.00 96 1029.3
20260507113426 53 36 0.0 0.0 0.00 0.00 0.00 96 1028.7
20260507112441 53 360 0.0 0.0 0.00 0.00 0.00 95 1029.1
20260507111526 53 360 0.0 0.0 0.00 0.00 0.00 95 1029.0
20260507110624 52 315 0.0 0.0 0.00 0.00 0.00 96 1029.0
20260507105624 52 315 0.0 0.0 0.00 0.00 0.00 95 1029.1
20260507104626 52 360 0.0 0.0 0.00 0.00 0.00 97 1028.9
20260507103625 52 338 0.0 0.0 0.00 0.00 0.00 96 1028.7
20260507102626 52 337 0.0 0.0 0.00 0.00 0.00 97 1028.5
20260507101626 52 360 0.0 0.0 0.00 0.00 0.00 97 1028.6
20260507100725 52 360 0.0 0.0 0.00 0.00 0.00 95 1028.5
20260507095726 52 315 0.0 0.0 0.00 0.00 0.00 95 1028.6
20260507093724 52 360 0.0 0.0 0.00 0.00 0.00 96 1028.3
20260507092726 53 315 0.0 0.0 0.00 0.00 0.00 95 1028.3
20260507091725 53 338 0.0 0.0 0.00 0.00 0.00 95 1028.3
20260507090725 53 315 0.0 0.0 0.00 0.00 0.00 95 1028.2
20260507085824 53 337 0.0 0.0 0.00 0.00 0.00 96 1028.2
20260507083825 54 270 0.0 0.0 0.00 0.00 0.00 96 1028.2
20260507082825 54 270 0.0 0.0 0.00 0.00 0.00 97 1028.2
20260507081925 54 270 0.0 0.0 0.00 0.00 0.00 97 1028.1
20260507080941 54 270 0.0 0.0 0.00 0.00 0.00 97 1027.7
20260507080025 54 270 0.0 0.0 0.00 0.00 0.00 97 1027.7
20260507075924 54 270 0.0 0.0 0.00 0.00 0.00 97 1027.7
20260507073925 54 292 0.0 0.0 0.00 0.00 0.00 95 1027.5
20260507072925 54 292 0.0 0.0 0.00 0.00 0.00 95 1027.3
20260507071925 54 337 0.0 0.0 0.00 0.00 0.00 96 1027.3
20260507070924 55 315 0.0 0.0 0.00 0.00 0.00 96 1027.3
20260507065925 55 286 0.0 0.0 0.00 0.00 0.00 95 1027.2
20260507065024 55 318 0.0 0.0 0.00 0.00 0.00 96 1027.1
20260507064925 55 305 0.0 0.0 0.00 0.00 0.00 95 1027.1
20260507063023 55 320 0.0 0.0 0.00 0.00 0.00 95 1026.9
20260507062026 56 289 0.0 0.0 0.00 0.00 0.00 96 1027.1
20260507061024 56 308 0.0 0.0 0.00 0.00 0.00 96 1026.6
20260507060025 56 339 0.0 0.0 0.00 0.00 0.00 96 1025.8
20260507055025 56 336 0.0 0.0 0.00 0.00 0.00 96 1026.4
20260507053925 56 270 0.0 0.0 0.00 0.00 0.00 96 1027.1
20260507052925 56 270 0.0 0.0 0.00 0.00 0.00 94 1027.3
20260507051925 56 286 0.0 0.0 0.00 0.00 0.00 93 1027.5
20260507050024 57 306 0.0 0.0 0.00 0.00 0.00 92 1027.2
20260507045123 57 241 0.0 0.0 0.00 0.00 0.00 90 1027.9
20260507044125 58 302 0.0 0.0 0.00 0.00 0.00 88 1027.2
20260507043124 60 292 0.0 0.0 0.00 0.00 0.00 83 1027.0
20260507042125 61 319 0.0 0.0 0.00 0.00 0.00 80 1027.0
20260507041125 62 320 0.0 0.0 0.00 0.00 0.00 79 1027.1
20260507040124 63 314 0.0 0.0 0.00 0.00 0.00 81 1026.7
20260507034217 64 321 0.0 0.0 0.00 0.00 0.00 86 1026.6
20260507033216 64 324 0.0 0.0 0.00 0.00 0.00 88 1026.6
20260507032316 64 340 0.0 0.0 0.00 0.00 0.00 89 1026.3
20260507031333 64 202 0.0 0.0 0.00 0.00 0.00 90 1025.9
20260507024417 64 157 0.0 0.0 0.00 0.00 0.00 89 1025.8
20260507023418 64 157 0.0 0.0 0.00 0.00 0.00 90 1025.7
20260507021416 63 112 0.0 0.0 0.00 0.00 0.00 90 1025.4
20260507020418 63 112 0.0 0.0 0.00 0.00 0.00 90 1025.7
20260507020317 63 116 0.0 0.0 0.00 0.00 0.00 90 1025.7
20260507014416 63 202 0.0 0.0 0.00 0.00 0.00 89 1025.9
20260507013418 64 202 0.0 0.0 0.00 0.00 0.00 88 1025.8
20260507013318 64 202 0.0 0.0 0.00 0.00 0.00 87 1025.9
20260507012317 64 202 0.0 0.0 0.00 0.00 0.00 87 1025.9
20260507012217 64 202 0.0 0.0 0.00 0.00 0.00 88 1025.9
20260507011216 64 202 0.0 0.0 0.00 0.00 0.00 88 1026.1
20260507010316 64 202 0.0 0.0 0.00 0.00 0.00 86 1026.3
20260507005317 65 157 0.0 0.0 0.00 0.00 0.00 84 1026.0
20260507004316 65 157 0.0 0.0 0.00 0.00 0.00 84 1025.8
20260507004219 65 157 0.0 0.0 0.00 0.00 0.00 83 1025.8
20260507003216 66 157 0.0 0.0 0.00 0.00 0.00 84 1025.6
20260507002217 66 180 0.0 0.0 0.00 0.00 0.00 82 1025.6
20260507001317 66 169 0.0 0.0 0.00 0.00 0.00 81 1025.4
20260507000320 67 161 0.0 0.0 0.00 0.00 0.00 81 1025.3
20260506234318 68 174 0.0 0.0 0.00 0.00 0.00 80 1024.9
20260506233415 68 178 0.0 0.0 0.00 0.00 0.00 80 1024.9
20260506232417 68 163 0.0 0.0 0.00 0.00 0.00 79 1025.0
20260506231416 68 142 0.0 0.0 0.00 0.00 0.00 78 1024.9
20260506230417 68 161 0.0 0.0 0.00 0.00 0.00 78 1024.6
20260506230318 68 157 0.0 0.0 0.00 0.00 0.00 78 1024.7
20260506224319 69 182 0.0 0.0 0.00 0.00 0.00 77 1024.8
20260506223415 69 169 0.0 0.0 0.00 0.00 0.00 77 1024.7
20260506222432 69 180 0.0 0.0 0.00 0.00 0.00 76 1024.7
20260506221516 69 190 0.0 0.0 0.00 0.00 0.00 77 1024.9
20260506220518 68 172 0.0 0.0 0.00 0.00 0.00 77 1024.8
20260506215516 68 177 0.0 0.0 0.00 0.00 0.00 76 1024.9
20260506214534 68 169 0.0 0.0 0.00 0.00 0.00 77 1024.9
20260506213616 68 177 0.0 0.0 0.00 0.00 0.00 76 1024.9
20260506210715 68 170 0.0 0.0 0.00 0.00 0.00 77 1024.7
20260506205717 68 186 0.0 0.0 0.00 0.00 0.00 77 1024.7
20260506204815 68 170 0.0 0.0 0.00 0.00 0.00 76 1024.7
20260506203817 68 186 0.0 0.0 0.00 0.00 0.00 77 1024.6
20260506202817 68 179 0.0 0.0 0.00 0.00 0.00 78 1024.6
20260506201916 67 163 0.0 0.0 0.00 0.00 0.00 77 1024.7
20260506201815 67 153 0.0 0.0 0.00 0.00 0.00 78 1024.8
20260506200817 67 182 0.0 0.0 0.00 0.00 0.00 79 1024.6
20260506195817 66 174 0.0 0.0 0.00 0.00 0.00 80 1024.8
20260506194832 66 164 0.0 0.0 0.00 0.00 0.00 79 1024.9
20260506193915 66 166 0.0 0.0 0.00 0.00 0.00 81 1024.8
20260506192916 66 180 0.0 0.0 0.00 0.00 0.00 81 1025.3
20260506191934 66 198 0.0 0.0 0.00 0.00 0.00 81 1025.2
20260506191018 66 195 0.0 0.0 0.00 0.00 0.00 81 1025.6
20260506190019 66 182 0.0 0.0 0.00 0.00 0.00 81 1025.5
20260506185017 66 184 0.0 0.0 0.00 0.00 0.00 81 1025.8
20260506183018 66 160 0.0 0.0 0.00 0.00 0.00 82 1025.5
20260506182017 65 184 0.0 0.0 0.00 0.00 0.00 82 1025.8
20260506180915 65 176 0.0 0.0 0.00 0.00 0.00 81 1026.1
20260506174916 65 175 0.0 0.0 0.00 0.00 0.00 83 1026.2
20260506172915 65 170 0.0 0.0 0.00 0.00 0.00 84 1026.2
20260506171917 65 188 0.0 0.0 0.00 0.00 0.00 85 1026.3
20260506171015 64 183 0.0 0.0 0.00 0.00 0.00 86 1026.3
20260506170017 64 182 0.0 0.0 0.00 0.00 0.00 87 1026.3
20260506165917 64 192 0.0 0.0 0.00 0.00 0.00 87 1026.3
20260506164916 64 178 0.0 0.0 0.00 0.00 0.00 89 1026.3
20260506163915 63 170 0.0 0.0 0.00 0.00 0.00 90 1026.4
20260506162916 62 163 0.0 0.0 0.00 0.00 0.00 91 1026.6
20260506162817 62 166 0.0 0.0 0.00 0.00 0.00 91 1026.6
20260506161817 62 164 0.0 0.0 0.00 0.00 0.00 90 1026.6
20260506160817 62 163 0.0 0.0 0.00 0.00 0.00 91 1026.8
20260506155816 62 162 0.0 0.0 0.00 0.00 0.00 92 1026.8
20260506151816 60 175 0.0 0.0 0.00 0.00 0.00 93 1027.0
20260506150816 60 181 0.0 0.0 0.00 0.00 0.00 92 1027.2
20260506145915 60 146 0.0 0.0 0.00 0.00 0.00 92 1027.4
20260506144915 60 114 0.0 0.0 0.00 0.00 0.00 92 1027.5
20260506143917 60 157 0.0 0.0 0.00 0.00 0.00 91 1027.4
20260506142917 60 112 0.0 0.0 0.00 0.00 0.00 91 1027.5
20260506141915 60 112 0.0 0.0 0.00 0.00 0.00 90 1027.6
20260506141817 60 112 0.0 0.0 0.00 0.00 0.00 89 1027.5
20260506140916 60 181 0.0 0.0 0.00 0.00 0.00 89 1027.5
20260506135916 60 154 0.0 0.0 0.00 0.00 0.00 88 1027.6
20260506134917 60 112 0.0 0.0 0.00 0.00 0.00 86 1027.6
20260506133918 60 180 0.0 0.0 0.00 0.00 0.00 86 1027.7
20260506133015 61 183 0.0 0.0 0.00 0.00 0.00 84 1027.8
20260506131031 62 180 0.0 0.0 0.00 0.00 0.00 82 1027.7